Cumberland, WI

3:12 PM CST on November 21, 2019 (GMT -0600)
Cumberland Municipal

Weather History for KUBE - October, 2019

Change the Weather History Date:

Sunday, October 20, 2019

  Actual Average (WUND) Record (WUND)
Temperature  
Mean Temperature 46 °F -  
Max Temperature 62 °F - - (-1)
Min Temperature 30 °F - - (-1)
Degree Days  
Heating Degree Days 19    
Moisture  
Dew Point 33 °F    
Average Humidity 66    
Maximum Humidity 100    
Minimum Humidity 26    
Precipitation  
Precipitation 0.00 in - - ()
Sea Level Pressure  
Sea Level Pressure 29.84 in    
Wind  
Wind Speed 2 mph (SE)    
Max Wind Speed 9 mph    
Max Gust Speed -    
Visibility 7 miles    
Events Fog    
Averages and records for this station are not official NWS values.
T = Trace of Precipitation, MM = Missing Value Source: NWS Daily Summary

Daily Weather History Graph

Daily Weather History Graph

Search for Another Location

Airport or City:

Astronomy

Oct. 20, 2019 Rise Set
Actual Time 7:30 AM CDT 6:14 PM CDT
Civil Twilight 7:00 AM CDT 6:44 PM CDT
Nautical Twilight 6:26 AM CDT 7:18 PM CDT
Astronomical Twilight 5:51 AM CDT 7:52 PM CDT
Moon 11:11 PM CDT (10/20) 2:11 PM CDT (10/20)
Length of Visible Light 11h 43m
Length of Day
10h 43m
Waning Gibbous, 59% of the Moon is Illuminated
Oct 20
Waning Gibbous
Oct 21
Last Quarter
Oct 27
New
Nov 4
First Quarter
Nov 12
Full

Hourly Weather History & Observations

Time (CDT) Temp. Windchill Dew Point Humidity Pressure Visibility Wind Dir Wind Speed Gust Speed Precip Events Conditions
12:15 AM 37.4 °F 33.8 °F 37.4 °F 100% 29.74 in 5.0 mi South 4.6 mph - N/A   Clear
12:35 AM 37.4 °F - 37.4 °F 100% 29.74 in 4.0 mi Calm Calm - N/A   Clear
12:55 AM 37.4 °F - 37.4 °F 100% 29.74 in 1.2 mi Calm Calm - N/A   Mist
1:15 AM 33.8 °F - 33.8 °F 100% 29.75 in 0.2 mi Calm Calm - N/A Fog Fog
1:35 AM 37.4 °F - 35.6 °F 93% 29.75 in 0.2 mi Calm Calm - N/A Fog Fog
1:55 AM 33.8 °F - 32.0 °F 93% 29.75 in 0.2 mi Calm Calm - N/A Fog Fog
2:15 AM 33.8 °F - 33.8 °F 100% 29.76 in 0.5 mi Calm Calm - N/A Fog Fog
2:35 AM 33.8 °F - 33.8 °F 100% 29.76 in 0.8 mi Calm Calm - N/A   Mostly Cloudy
2:55 AM 33.8 °F - 32.0 °F 93% 29.76 in 1.0 mi Calm Calm - N/A   Mist
3:15 AM 33.8 °F - 32.0 °F 93% 29.77 in 0.2 mi Calm Calm - N/A Fog Fog
3:35 AM 33.8 °F - 32.0 °F 93% 29.76 in 1.0 mi Calm Calm - N/A   Mostly Cloudy
3:55 AM 33.8 °F - 33.8 °F 100% 29.77 in 10.0 mi Calm Calm - N/A   Clear
4:15 AM 32.0 °F - 32.0 °F 100% 29.77 in 5.0 mi Calm Calm - N/A   Clear
4:35 AM 32.0 °F - 32.0 °F 100% 29.78 in 1.5 mi Calm Calm - N/A   Mist
4:55 AM 32.0 °F - 32.0 °F 100% 29.78 in 0.5 mi Calm Calm - N/A Fog Fog
5:15 AM 32.0 °F - 30.2 °F 93% 29.79 in 1.8 mi Calm Calm - N/A   Mist
5:35 AM 32.0 °F - 30.2 °F 93% 29.80 in 0.8 mi Calm Calm - N/A   Mist
5:55 AM 30.2 °F - 30.2 °F 100% 29.81 in 0.5 mi Calm Calm - N/A Fog Light Freezing Fog
6:15 AM 32.0 °F - 30.2 °F 93% 29.81 in 0.5 mi Calm Calm - N/A Fog Light Freezing Fog
6:35 AM 32.0 °F - 32.0 °F 100% 29.82 in 7.0 mi Calm Calm - N/A   Scattered Clouds
6:55 AM 32.0 °F - 32.0 °F 100% 29.83 in 10.0 mi Calm Calm - N/A   Clear
7:15 AM 32.0 °F - 30.2 °F 93% 29.83 in 3.0 mi Calm Calm - N/A   Clear
7:35 AM 32.0 °F - 30.2 °F 93% 29.83 in 5.0 mi Calm Calm - N/A   Clear
7:55 AM 30.2 °F - 30.2 °F 100% 29.84 in 0.5 mi Calm Calm - N/A Fog Light Freezing Fog
8:15 AM 32.0 °F - 32.0 °F 100% 29.84 in 5.0 mi Calm Calm - N/A   Clear
8:35 AM 32.0 °F - 32.0 °F 100% 29.86 in 5.0 mi Calm Calm - N/A   Clear
8:55 AM 35.6 °F - 33.8 °F 93% 29.86 in 10.0 mi Calm Calm - N/A   Clear
9:15 AM 37.4 °F - 37.4 °F 100% 29.87 in 10.0 mi Calm Calm - N/A   Clear
9:35 AM 39.2 °F - 37.4 °F 93% 29.87 in 10.0 mi Calm Calm - N/A   Clear
9:55 AM 41.0 °F - 41.0 °F 100% 29.89 in 10.0 mi Calm Calm - N/A   Clear
10:15 AM 44.6 °F - 39.2 °F 81% 29.89 in 10.0 mi Calm Calm - N/A   Clear
10:35 AM 48.2 °F - 37.4 °F 66% 29.89 in 10.0 mi Calm Calm - N/A   Clear
10:55 AM 50.0 °F - 37.4 °F 62% 29.88 in 10.0 mi Calm Calm - N/A   Clear
11:15 AM 51.8 °F - 37.4 °F 58% 29.88 in 10.0 mi South 3.5 mph - N/A   Clear
11:35 AM 53.6 °F - 35.6 °F 51% 29.88 in 10.0 mi South 4.6 mph - N/A   Clear
11:55 AM 55.4 °F - 35.6 °F 47% 29.88 in 10.0 mi South 5.8 mph - N/A   Clear
12:15 PM 57.2 °F - 33.8 °F 41% 29.88 in 10.0 mi South 3.5 mph - N/A   Clear
12:35 PM 59.0 °F - 33.8 °F 39% 29.88 in 10.0 mi SSW 3.5 mph - N/A   Clear
12:55 PM 60.8 °F - 32.0 °F 34% 29.89 in 10.0 mi South 5.8 mph - N/A   Clear
1:15 PM 60.8 °F - 30.2 °F 31% 29.89 in 10.0 mi South 6.9 mph - N/A   Clear
1:35 PM 60.8 °F - 28.4 °F 29% 29.88 in 10.0 mi South 5.8 mph - N/A   Clear
1:55 PM 60.8 °F - 28.4 °F 29% 29.87 in 10.0 mi South 5.8 mph - N/A   Clear
2:15 PM 62.6 °F - 26.6 °F 26% 29.87 in 10.0 mi South 6.9 mph - N/A   Clear
2:35 PM 62.6 °F - 28.4 °F 27% 29.87 in 10.0 mi SSW 9.2 mph - N/A   Clear
2:55 PM 60.8 °F - 26.6 °F 27% 29.87 in 10.0 mi South 3.5 mph - N/A   Clear
3:15 PM 62.6 °F - 26.6 °F 26% 29.87 in 10.0 mi South 4.6 mph - N/A   Clear
3:35 PM 62.6 °F - 26.6 °F 26% 29.87 in 10.0 mi NNE 8.1 mph - N/A   Clear
3:55 PM 60.8 °F - 28.4 °F 29% 29.87 in 10.0 mi SE 4.6 mph - N/A   Clear
4:15 PM 60.8 °F - 30.2 °F 31% 29.87 in 10.0 mi SE 6.9 mph - N/A   Clear
4:35 PM 59.0 °F - 32.0 °F 36% 29.88 in 10.0 mi SE 5.8 mph - N/A   Clear
4:55 PM 59.0 °F - 32.0 °F 36% 29.88 in 10.0 mi ESE 5.8 mph - N/A   Clear
5:15 PM 57.2 °F - 30.2 °F 36% 29.88 in 10.0 mi ESE 6.9 mph - N/A   Clear
5:35 PM 55.4 °F - 30.2 °F 38% 29.87 in 10.0 mi ESE 6.9 mph - N/A   Clear
5:55 PM 55.4 °F - 30.2 °F 38% 29.87 in 10.0 mi East 4.6 mph - N/A   Clear
6:15 PM 55.4 °F - 32.0 °F 41% 29.86 in 10.0 mi East 4.6 mph - N/A   Clear
6:35 PM 53.6 °F - 32.0 °F 44% 29.86 in 10.0 mi ESE 4.6 mph - N/A   Clear
6:55 PM 53.6 °F - 32.0 °F 44% 29.86 in 10.0 mi ESE 4.6 mph - N/A   Clear
7:15 PM 53.6 °F - 32.0 °F 44% 29.86 in 10.0 mi ESE 5.8 mph - N/A   Clear
7:35 PM 53.6 °F - 32.0 °F 44% 29.86 in 10.0 mi ESE 6.9 mph - N/A   Clear
7:55 PM 53.6 °F - 32.0 °F 44% 29.87 in 10.0 mi Calm Calm - N/A   Clear
8:15 PM 51.8 °F - 33.8 °F 50% 29.87 in 10.0 mi East 3.5 mph - N/A   Clear
8:35 PM 51.8 °F - 33.8 °F 50% 29.86 in 10.0 mi East 3.5 mph - N/A   Scattered Clouds
8:55 PM 51.8 °F - 33.8 °F 50% 29.87 in 10.0 mi SE 4.6 mph - N/A   Mostly Cloudy
9:15 PM 51.8 °F - 33.8 °F 50% 29.87 in 7.0 mi ESE 6.9 mph - N/A   Scattered Clouds
9:35 PM 50.0 °F - 35.6 °F 58% 29.87 in 5.0 mi Calm Calm - N/A   Haze
9:55 PM 50.0 °F - 35.6 °F 58% 29.87 in 10.0 mi Calm Calm - N/A   Scattered Clouds
10:15 PM 50.0 °F - 33.8 °F 54% 29.88 in 10.0 mi Calm Calm - N/A   Clear
10:35 PM 50.0 °F - 33.8 °F 54% 29.87 in 10.0 mi East 4.6 mph - N/A   Clear
10:55 PM 50.0 °F - 33.8 °F 54% 29.86 in 10.0 mi East 5.8 mph - N/A   Clear
11:15 PM 50.0 °F - 33.8 °F 54% 29.85 in 10.0 mi East 8.1 mph - N/A   Clear
11:35 PM 50.0 °F - 33.8 °F 54% 29.85 in 10.0 mi ESE 6.9 mph - N/A   Clear
11:55 PM 50.0 °F - 33.8 °F 54% 29.84 in 10.0 mi ESE 6.9 mph - N/A   Clear